Kayseri, Turkey

3:13 PM EET on February 08, 2016 (GMT +0200)
Erkilet Air Base

Weather History for LTAU - January, 2013

Change the Weather History Date:

Thursday, January 24, 2013

  Actual Average Record
Temperature  
Mean Temperature 40 °F -  
Max Temperature 52 °F 41 °F 55 °F (2007)
Min Temperature 29 °F 22 °F 3 °F (2008)
Degree Days  
Heating Degree Days 24    
Moisture  
Dew Point 32 °F    
Average Humidity 74    
Maximum Humidity 100    
Minimum Humidity 36    
Precipitation  
Precipitation 0.00 in - - ()
Sea Level Pressure  
Sea Level Pressure 30.02 in    
Wind  
Wind Speed 2 mph ()    
Max Wind Speed 6 mph    
Max Gust Speed -    
Visibility 6.2 miles    
Events      
Averages and records for this station are not official NWS values.
T = Trace of Precipitation, MM = Missing Value Source: Averaged Metar Reports

Daily Weather History Graph

Daily Weather History Graph

Search for Another Location

Airport or City:

Trip Planner

Search our weather history database for the weather conditions in past years. The results will help you decide how hot, cold, wet, or windy it might be!

Date:

Astronomy

Jan. 24, 2013 Rise Set
Actual Time 6:50 AM EET 4:50 PM EET
Civil Twilight 6:22 AM EET 5:19 PM EET
Nautical Twilight 5:49 AM EET 5:51 PM EET
Astronomical Twilight 5:18 AM EET 6:23 PM EET
Moon 2:34 PM EET (1/24) 4:32 AM EET (1/24)
Length of Visible Light 10h 57m
Length of Day
9h 59m
Waxing Gibbous, 93% of the Moon is Illuminated
Jan 24
Waxing Gibbous
Jan 27
Full
Feb 3
Last Quarter
Feb 10
New
Feb 17
First Quarter

Hourly Weather History & Observations

Time (EET) Temp. Windchill Dew Point Humidity Pressure Visibility Wind Dir Wind Speed Gust Speed Precip Events Conditions
12:20 AM 41.0 °F - 35.6 °F 81% 30.04 in 6.2 mi Variable 2.3 mph - N/A   Mostly Cloudy
12:50 AM 42.8 °F 40.1 °F 35.6 °F 76% 30.04 in 6.2 mi WSW 4.6 mph - N/A   Mostly Cloudy
1:20 AM 39.2 °F - 33.8 °F 81% 30.04 in 6.2 mi Variable 1.2 mph - N/A   Mostly Cloudy
1:50 AM 39.2 °F - 33.8 °F 81% 30.04 in 6.2 mi SSE 1.2 mph - N/A   Mostly Cloudy
2:00 AM 38 °F - 34 °F 78%  in 12 mi SSE 1.2 mph - -   Partly Cloudy
2:20 AM 35.6 °F 31.7 °F 32.0 °F 87% 30.04 in 6.2 mi NE 4.6 mph - N/A   Mostly Cloudy
2:50 AM 35.6 °F - 32.0 °F 87% 30.04 in 6.2 mi Variable 1.2 mph - N/A   Mostly Cloudy
3:20 AM 35.6 °F 31.7 °F 33.8 °F 93% 30.04 in 6.2 mi North 4.6 mph - N/A   Mostly Cloudy
3:50 AM 35.6 °F - 32.0 °F 87% 30.04 in 6.2 mi NE 1.2 mph - N/A   Mostly Cloudy
4:20 AM 33.8 °F - 30.2 °F 87% 30.04 in 6.2 mi Calm Calm - N/A   Mostly Cloudy
4:50 AM 32.0 °F - 30.2 °F 93% 30.04 in 6.2 mi Calm Calm - N/A   Mostly Cloudy
5:20 AM 32.0 °F - 30.2 °F 93% 30.06 in 6.2 mi NNE 1.2 mph - N/A   Mostly Cloudy
5:50 AM 30.2 °F - 28.4 °F 93% 30.06 in 3.7 mi Calm Calm - N/A   Mostly Cloudy
6:20 AM 30.2 °F - 28.4 °F 93% 30.06 in 4.3 mi NNE 1.2 mph - N/A   Mostly Cloudy
6:50 AM 30.2 °F - 30.2 °F 100% 30.09 in 4.3 mi Calm Calm - N/A   Mostly Cloudy
7:20 AM 32.0 °F - 30.2 °F 93% 30.09 in 4.3 mi NNE 1.2 mph - N/A   Mostly Cloudy
7:50 AM 33.8 °F - 32.0 °F 93% 30.06 in 2.5 mi Calm Calm - N/A   Mostly Cloudy
8:00 AM 33 °F - 32 °F 92%  in 2 mi Calm Calm - -   Mist
8:20 AM 37.4 °F - 33.8 °F 87% 30.06 in 5.0 mi Variable 1.2 mph - N/A   Mostly Cloudy
8:50 AM 41.0 °F - 35.6 °F 81% 30.06 in 5.6 mi NNE 2.3 mph - N/A   Scattered Clouds
9:20 AM 42.8 °F 40.1 °F 35.6 °F 76% 30.09 in 6.2 mi NNE 4.6 mph - N/A   Scattered Clouds
9:50 AM 44.6 °F 42.2 °F 35.6 °F 71% 30.09 in 6.2 mi North 4.6 mph - N/A   Scattered Clouds
10:20 AM 48.2 °F - 33.8 °F 58% 30.06 in 6.2 mi Variable 2.3 mph - N/A   Mostly Cloudy
10:50 AM 50.0 °F - 33.8 °F 54% 30.06 in 6.2 mi Calm Calm - N/A   Mostly Cloudy
11:20 AM 51.8 °F - 35.6 °F 54% 30.06 in 6.2 mi Calm Calm - N/A   Mostly Cloudy
11:50 AM 50.0 °F - 33.8 °F 54% 30.04 in 6.2 mi Calm Calm - N/A   Mostly Cloudy
12:20 PM 50.0 °F - 33.8 °F 54% 30.04 in 6.2 mi West 3.5 mph - N/A   Mostly Cloudy
12:50 PM 50.0 °F - 33.8 °F 54% 30.04 in 6.2 mi West 3.5 mph - N/A   Mostly Cloudy
1:20 PM 51.8 °F - 33.8 °F 50% 30.01 in 6.2 mi Variable 1.2 mph - N/A   Mostly Cloudy
1:50 PM 51.8 °F - 32.0 °F 47% 30.01 in 6.2 mi Calm Calm - N/A   Mostly Cloudy
2:00 PM 51 °F - 32 °F 36%  in 12 mi Calm Calm - -   Scattered Clouds
2:20 PM 51.8 °F - 32.0 °F 47% 30.01 in 6.2 mi Calm Calm - N/A   Mostly Cloudy
2:50 PM 51.8 °F - 30.2 °F 44% 30.01 in 6.2 mi Variable 1.2 mph - N/A   Mostly Cloudy
3:20 PM 50.0 °F - 30.2 °F 47% 30.01 in 6.2 mi Calm Calm - N/A   Mostly Cloudy
3:50 PM 51.8 °F - 30.2 °F 44% 30.01 in 6.2 mi Calm Calm - N/A   Scattered Clouds
4:20 PM 50.0 °F - 30.2 °F 47% 29.98 in 6.2 mi Calm Calm - N/A   Scattered Clouds
4:50 PM 48.2 °F - 30.2 °F 50% 29.98 in 6.2 mi Calm Calm - N/A   Scattered Clouds
5:20 PM 46.4 °F - 33.8 °F 62% 29.98 in 5.0 mi ESE 2.3 mph - N/A   Scattered Clouds
5:50 PM 39.2 °F 35.9 °F 32.0 °F 75% 29.98 in 6.2 mi East 4.6 mph - N/A   Scattered Clouds
6:20 PM 41.0 °F 37.1 °F 33.8 °F 76% 29.98 in 6.2 mi North 5.8 mph - N/A   Scattered Clouds
6:50 PM 41.0 °F 38.0 °F 33.8 °F 76% 29.98 in 6.2 mi North 4.6 mph - N/A   Mostly Cloudy
7:20 PM 39.2 °F - 32.0 °F 75% 29.98 in 6.2 mi Calm Calm - N/A   Mostly Cloudy
7:50 PM 37.4 °F - 33.8 °F 87% 29.98 in 6.2 mi Calm Calm - N/A   Mostly Cloudy
8:00 PM 38 °F - 33 °F 74%  in 12 mi Calm Calm - -   Scattered Clouds
8:20 PM 35.6 °F 32.8 °F 30.2 °F 81% 29.98 in 6.2 mi Variable 3.5 mph - N/A   Scattered Clouds
8:50 PM 33.8 °F 29.6 °F 30.2 °F 87% 29.95 in 6.2 mi ENE 4.6 mph - N/A   Mostly Cloudy
9:20 PM 35.6 °F 31.7 °F 32.0 °F 87% 29.95 in 6.2 mi NNE 4.6 mph - N/A   Mostly Cloudy
9:50 PM 35.6 °F 32.8 °F 32.0 °F 87% 29.95 in 6.2 mi NNE 3.5 mph - N/A   Mostly Cloudy
10:20 PM 35.6 °F - 32.0 °F 87% 29.92 in 6.2 mi Calm Calm - N/A   Mostly Cloudy
10:50 PM 35.6 °F - 30.2 °F 81% 29.92 in 6.2 mi Variable 1.2 mph - N/A   Mostly Cloudy
11:20 PM 33.8 °F - 30.2 °F 87% 29.92 in 6.2 mi Variable 2.3 mph - N/A   Mostly Cloudy
11:50 PM 33.8 °F - 30.2 °F 87% 29.89 in 6.2 mi Variable 1.2 mph - N/A   Mostly Cloudy